Date String (YYYY-MM-DD hh:mm:ss) UTC,Instrument flags,Ambient pressure (hPa),Sample flow (lpm),Bypass flow (lpm),Sample temperature (°C),Ambient temperature (°C),ASC tube jacket temperature (°C),LED temperature (°C),Box temperature (°C),Sample RH (%),Span deviation,Mass concentration (μg/m³),Mass concentration (μg/m³),Mass concentration (μg/m³)
DateTimeUTC,F1_M11,P_M11,Q1_M11,Q2_M11,T1_M11,T2_M11,T3_M11,T4_M11,T5_M11,U1_M11,ZSPAN_M11,X0_M11,X2_M11,X1_M11
2022-05-12 22:00:00,,0822.7,5.01,0.00,29.1,28.3,00.0,38.0,31.0,07.0,0000.0,0009.88,0003.31,0001.27
2022-05-12 22:01:00,,0822.7,4.99,0.00,29.1,28.2,00.0,38.0,31.0,06.9,0000.0,0009.83,0003.29,0001.28
2022-05-12 22:02:00,,0822.8,5.01,0.00,29.2,28.3,00.0,38.0,31.0,06.8,0000.0,0009.53,0003.25,0001.28
2022-05-12 22:03:00,,0822.7,4.99,0.00,29.2,28.3,00.0,38.0,30.9,07.0,0000.0,0009.52,0003.27,0001.30
2022-05-12 22:04:00,,0822.7,4.99,0.00,29.2,28.3,00.0,38.1,30.9,07.3,0000.0,0009.87,0003.28,0001.31
2022-05-12 22:05:00,,0822.9,5.00,0.00,29.2,28.3,00.0,38.1,31.0,07.3,0000.0,0010.25,0003.30,0001.31
2022-05-12 22:06:00,,0822.8,5.00,0.00,29.2,28.3,00.0,38.1,31.0,07.6,0000.0,0010.29,0003.28,0001.32
2022-05-12 22:07:00,,0822.8,5.00,0.00,29.2,28.4,00.0,38.1,30.9,07.6,0000.0,0010.56,0003.30,0001.34
2022-05-12 22:08:00,,0822.9,5.01,0.00,29.2,28.4,00.0,38.1,31.0,07.5,0000.0,0011.16,0003.27,0001.33
2022-05-12 22:09:00,,0822.7,4.99,0.00,29.2,28.4,00.0,38.1,31.0,07.1,0000.0,0011.50,0003.27,0001.31
2022-05-12 22:10:00,,0822.7,5.00,0.00,29.2,28.4,00.0,38.1,31.0,07.1,0000.0,0011.25,0003.25,0001.31
2022-05-12 22:11:00,,0822.7,5.00,0.00,29.2,28.4,00.0,38.1,31.0,07.1,0000.0,0011.14,0003.33,0001.32
2022-05-12 22:12:00,,0822.7,5.00,0.00,29.2,28.4,00.0,38.1,31.0,07.3,0000.0,0012.08,0003.37,0001.32
2022-05-12 22:13:00,,0822.7,5.00,0.00,29.3,28.4,00.0,38.1,31.1,07.1,0000.0,0012.25,0003.38,0001.32
2022-05-12 22:14:00,,0822.7,4.99,0.00,29.3,28.4,00.0,38.1,31.1,07.3,0000.0,0011.98,0003.34,0001.30
2022-05-12 22:15:00,,0822.7,5.01,0.00,29.3,28.4,00.0,38.1,31.0,07.0,0000.0,0011.63,0003.37,0001.28
2022-05-12 22:16:00,,0822.7,5.00,0.00,29.3,28.4,00.0,38.2,31.0,07.3,0000.0,0011.19,0003.34,0001.27
2022-05-12 22:17:00,,0822.6,4.99,0.00,29.3,28.5,00.0,38.2,31.1,07.6,0000.0,0011.28,0003.31,0001.27
2022-05-12 22:18:00,,0822.6,5.01,0.00,29.3,28.5,00.0,38.2,31.1,07.4,0000.0,0011.25,0003.31,0001.25
2022-05-12 22:19:00,,0822.5,5.01,0.00,29.3,28.5,00.0,38.2,31.1,07.4,0000.0,0010.72,0003.35,0001.25
2022-05-12 22:20:00,,0822.5,5.00,0.00,29.3,28.5,00.0,38.2,31.1,07.6,0000.0,0010.31,0003.35,0001.25
2022-05-12 22:21:00,,0822.5,4.99,0.00,29.3,28.5,00.0,38.2,31.2,07.1,0000.0,0010.23,0003.36,0001.26
2022-05-12 22:22:00,,0822.5,4.99,0.00,29.4,28.5,00.0,38.2,31.2,07.2,0000.0,0009.79,0003.34,0001.26
2022-05-12 22:23:00,,0822.5,5.01,0.00,29.4,28.5,00.0,38.2,31.2,07.2,0000.0,0008.61,0003.31,0001.25
2022-05-12 22:24:00,,0822.6,5.00,0.00,29.4,28.5,00.0,38.2,31.2,06.7,0000.0,0008.57,0003.25,0001.25
2022-05-12 22:25:00,,0822.4,5.00,0.00,29.4,28.5,00.0,38.2,31.2,07.1,0000.0,0008.76,0003.26,0001.25
2022-05-12 22:26:00,,0822.5,4.99,0.00,29.4,28.5,00.0,38.2,31.2,06.8,0000.0,0008.63,0003.20,0001.27
2022-05-12 22:27:00,,0822.6,5.00,0.00,29.4,28.5,00.0,38.2,31.2,06.7,0000.0,0008.75,0003.21,0001.28
2022-05-12 22:28:00,,0822.6,5.01,0.00,29.4,28.5,00.0,38.3,31.2,06.8,0000.0,0008.73,0003.24,0001.29
2022-05-12 22:29:00,,0822.5,5.00,0.00,29.4,28.5,00.0,38.3,31.2,06.7,0000.0,0008.55,0003.18,0001.28
2022-05-12 22:30:00,,0822.6,4.99,0.00,29.4,28.5,00.0,38.3,31.2,06.2,0000.0,0008.68,0003.16,0001.28
2022-05-12 22:31:00,,0822.5,5.00,0.00,29.4,28.5,00.0,38.3,31.2,06.3,0000.0,0008.71,0003.20,0001.29
2022-05-12 22:32:00,,0822.5,5.01,0.00,29.4,28.5,00.0,38.3,31.2,06.8,0000.0,0008.55,0003.17,0001.28
2022-05-12 22:33:00,,0822.6,4.99,0.00,29.4,28.5,00.0,38.3,31.2,07.0,0000.0,0008.53,0003.17,0001.28
2022-05-12 22:34:00,,0822.6,5.00,0.00,29.4,28.6,00.0,38.3,31.2,07.2,0000.0,0008.54,0003.16,0001.28
2022-05-12 22:35:00,,0822.5,5.01,0.00,29.4,28.6,00.0,38.3,31.2,06.9,0000.0,0008.59,0003.21,0001.29
2022-05-12 22:36:00,,0822.5,5.00,0.00,29.4,28.6,00.0,38.3,31.2,06.4,0000.0,0008.62,0003.23,0001.28
2022-05-12 22:37:00,,0822.5,4.99,0.00,29.5,28.6,00.0,38.3,31.3,06.8,0000.0,0008.56,0003.22,0001.28
2022-05-12 22:38:00,,0822.5,5.00,0.00,29.5,28.6,00.0,38.3,31.3,06.7,0000.0,0008.58,0003.22,0001.28
2022-05-12 22:39:00,,0822.6,5.00,0.00,29.5,28.6,00.0,38.3,31.3,06.5,0000.0,0008.41,0003.19,0001.28
2022-05-12 22:40:00,,0822.6,5.01,0.00,29.5,28.6,00.0,38.3,31.3,06.1,0000.0,0008.38,0003.21,0001.29
2022-05-12 22:41:00,,0822.5,4.99,0.00,29.5,28.6,00.0,38.4,31.3,06.2,0000.0,0007.91,0003.17,0001.29
2022-05-12 22:42:00,,0822.5,5.00,0.00,29.5,28.6,00.0,38.4,31.3,06.2,0000.0,0007.66,0003.09,0001.31
2022-05-12 22:43:00,,0822.5,4.99,0.00,29.5,28.6,00.0,38.4,31.3,06.0,0000.0,0007.57,0003.08,0001.31
2022-05-12 22:44:00,,0822.6,5.01,0.00,29.5,28.6,00.0,38.4,31.3,05.9,0000.0,0007.59,0003.10,0001.32
2022-05-12 22:45:00,,0822.6,5.01,0.00,29.5,28.6,00.0,38.4,31.3,06.0,0000.0,0007.73,0003.15,0001.31
2022-05-12 22:46:00,,0822.7,5.00,0.00,29.5,28.6,00.0,38.4,31.3,05.9,0000.0,0007.71,0003.13,0001.32
2022-05-12 22:47:00,,0822.6,5.00,0.00,29.5,28.6,00.0,38.4,31.3,05.7,0000.0,0007.57,0003.09,0001.33
2022-05-12 22:48:00,,0822.7,4.99,0.00,29.5,28.6,00.0,38.4,31.3,05.7,0000.0,0007.62,0003.14,0001.33
2022-05-12 22:49:00,,0822.6,5.00,0.00,29.5,28.7,00.0,38.4,31.3,06.2,0000.0,0007.53,0003.12,0001.33
2022-05-12 22:50:00,,0822.5,5.00,0.00,29.5,28.7,00.0,38.4,31.3,06.1,0000.0,0007.59,0003.12,0001.33
2022-05-12 22:51:00,,0822.4,5.01,0.00,29.5,28.7,00.0,38.4,31.3,06.1,0000.0,0007.51,0003.11,0001.31
2022-05-12 22:52:00,,0822.5,5.00,0.00,29.6,28.7,00.0,38.4,31.3,05.9,0000.0,0008.23,0003.13,0001.31
2022-05-12 22:53:00,,0822.6,4.99,0.00,29.6,28.7,00.0,38.4,31.3,05.9,0000.0,0008.80,0003.15,0001.29
2022-05-12 22:54:00,,0822.6,5.01,0.00,29.6,28.7,00.0,38.4,31.4,05.6,0000.0,0009.34,0003.17,0001.27
2022-05-12 22:55:00,,0822.6,5.00,0.00,29.6,28.7,00.0,38.5,31.4,05.6,0000.0,0009.43,0003.18,0001.26
2022-05-12 22:56:00,,0822.5,5.00,0.00,29.6,28.7,00.0,38.5,31.4,05.7,0000.0,0009.39,0003.19,0001.27
2022-05-12 22:57:00,,0822.5,5.00,0.00,29.6,28.7,00.0,38.5,31.4,05.8,0000.0,0009.24,0003.17,0001.27
2022-05-12 22:58:00,,0822.6,5.00,0.00,29.6,28.7,00.0,38.5,31.4,06.2,0000.0,0009.04,0003.13,0001.26
2022-05-12 22:59:00,,0822.6,5.01,0.00,29.6,28.7,00.0,38.5,31.4,05.9,0000.0,0009.06,0003.08,0001.25
